Theta_e
308 307 307 307 307 307 307 307 307 307 307 307 307 307 308 308 313 323 327 319 319 315 317 321 324 325 326 329 330 331 332 332 335 338 337 338 337 337 339 338 337 338 338 340 340
307 307 307 307 306 306 307 307 307 307 307 307 307 308 308 309 319 325 320 319 316 314 318 323 326 327 329 330 331 331 331 331 331 333 337 336 336 337 341 344 343 338 338 339 341
306 306 306 306 306 306 306 306 307 307 307 307 307 308 308 310 328 327 322 318 316 315 323 324 326 329 330 330 330 330 330 331 331 332 334 336 337 337 341 342 340 342 340 340 340
306 306 306 306 306 306 306 306 306 307 307 307 307 308 310 321 327 325 320 319 318 319 324 324 327 330 331 330 329 329 330 330 332 333 334 337 336 338 339 339 339 339 339 340 342
306 306 306 307 306 306 306 306 306 307 307 307 307 308 318 324 325 326 317 315 319 319 324 327 329 331 331 330 330 330 332 333 333 332 335 335 337 338 339 339 340 339 340 341 345
306 306 306 306 306 306 306 306 306 307 307 307 307 308 323 323 323 323 319 321 322 322 325 327 330 329 331 330 330 331 334 334 335 335 336 340 341 341 341 341 342 342 343 346 347
307 307 307 306 307 307 307 307 307 307 307 307 307 312 321 323 323 323 318 321 323 324 327 327 327 329 331 331 332 332 335 334 335 335 337 335 336 344 343 343 344 345 346 345 344
307 307 307 307 307 307 307 307 307 307 307 307 307 319 325 322 322 322 323 321 321 323 324 325 326 328 330 331 332 333 336 336 333 333 340 338 345 343 341 341 342 343 344 346 345
307 308 307 307 307 307 307 307 307 308 307 308 319 325 324 323 324 324 325 324 323 323 324 324 325 330 331 332 334 334 332 335 336 334 337 342 345 342 341 341 344 346 347 347 348
308 308 307 307 307 307 307 307 311 308 318 318 321 324 324 326 325 325 326 326 326 327 328 327 329 331 332 333 336 334 332 333 333 334 337 340 343 341 339 340 341 345 347 348 348
308 308 308 307 307 307 309 316 321 325 319 324 324 325 325 325 324 325 326 327 328 329 331 330 331 332 331 331 330 330 331 333 333 334 336 340 341 340 339 339 342 344 347 348 345
309 309 308 307 308 307 308 318 319 317 323 323 323 323 324 324 326 327 326 329 329 331 331 330 331 330 331 330 330 330 336 339 334 334 337 338 339 339 339 340 341 342 344 345 344
309 309 308 308 308 308 316 317 317 318 323 324 324 325 325 326 328 328 328 330 331 331 330 330 331 330 330 330 334 335 331 332 335 334 336 340 342 340 341 341 341 342 343 343 341
309 310 309 308 310 315 317 318 317 318 326 325 324 325 325 327 328 328 328 330 331 330 329 331 330 329 330 331 329 333 331 331 332 336 341 338 344 346 342 342 342 342 341 339 336
309 310 309 307 319 316 319 318 317 320 331 326 325 325 326 327 329 327 327 329 330 329 329 331 329 329 332 331 330 332 332 333 333 335 339 341 344 343 339 342 341 340 338 336 334
310 310 308 310 313 317 317 318 318 330 330 325 326 324 325 326 328 329 329 330 331 329 329 331 332 332 332 331 331 332 335 336 342 338 347 341 343 343 341 342 341 339 337 335 333
310 310 309 316 318 315 318 322 327 329 328 326 325 325 324 326 327 328 329 330 330 331 333 331 332 332 331 331 335 334 335 339 349 343 344 338 333 343 339 338 339 338 337 334 332
310 309 314 314 316 316 321 328 333 326 325 326 325 325 325 325 326 327 329 329 329 331 333 333 334 332 332 331 330 330 334 337 338 333 330 337 343 343 339 339 337 336 336 334 332
312 320 318 317 314 317 325 329 328 328 328 326 325 324 325 325 326 327 328 328 328 332 334 334 336 333 332 331 331 331 336 335 334 335 337 339 340 339 339 339 337 336 335 334 332
320 320 318 318 316 319 326 329 330 329 329 328 325 325 326 325 326 327 328 328 328 332 335 333 336 332 333 331 335 333 331 332 336 336 333 335 343 347 341 340 338 337 336 334 332
323 321 322 316 317 322 326 328 329 329 328 328 325 326 326 326 326 327 328 327 328 330 332 333 332 335 331 335 331 333 336 333 334 338 335 333 340 335 338 339 338 336 334 334 331
321 321 318 317 323 324 326 327 319 328 328 329 331 326 327 325 326 327 328 328 330 329 331 335 334 334 336 333 332 331 331 333 335 335 334 334 341 336 336 338 337 335 333 332 330
322 325 318 323 325 324 325 326 327 327 330 328 329 330 328 327 327 327 328 337 336 332 334 332 333 336 339 339 335 332 331 331 332 339 340 338 344 337 337 338 336 334 333 332 330
323 323 320 324 326 331 327 327 327 325 328 330 330 333 331 329 330 328 331 335 336 338 333 340 337 335 335 331 329 333 332 332 334 339 337 338 339 340 339 338 337 335 332 331 330
324 326 322 322 324 328 326 325 326 329 329 330 333 331 331 332 328 330 331 337 336 332 337 340 335 333 332 330 330 331 331 332 332 333 335 336 334 338 339 338 337 335 332 331 329
330 330 325 329 325 326 323 327 327 330 331 331 336 330 329 335 330 330 332 334 335 337 338 344 337 334 334 333 331 331 332 332 332 333 334 335 342 337 337 336 337 335 332 331 328
325 328 331 324 329 327 327 328 328 332 331 332 337 334 334 336 336 335 333 335 336 339 340 338 339 337 336 336 332 333 334 333 332 334 336 338 339 336 336 336 336 334 332 330 326
Wind_Speed
9 10 10 11 12 12 13 13 14 16 18 19 20 22 23 26 26 7 5 5 3 5 8 8 13 14 13 16 8 9 4 4 16 18 14 27 8 11 4 14 12 12 15 20 18
9 10 11 12 13 13 14 14 14 16 18 19 20 21 23 26 15 12 5 1 5 13 8 12 12 12 13 7 4 11 4 16 10 11 16 5 10 7 8 30 16 12 17 21 17
10 10 12 13 13 14 14 14 14 16 18 19 20 21 23 20 12 10 3 2 7 12 9 12 11 7 15 4 1 4 10 5 8 9 8 6 12 7 18 13 13 22 16 16 15
11 11 12 13 13 14 14 14 14 15 17 18 20 22 19 6 2 6 2 4 10 8 9 11 11 13 10 3 2 11 8 4 7 4 3 5 8 13 16 13 10 17 14 14 12
11 12 12 13 14 14 14 14 14 15 16 17 19 20 11 8 3 3 1 7 9 10 12 10 12 11 9 2 3 9 3 1 3 6 5 1 14 14 13 9 11 14 11 11 15
11 13 13 13 14 14 13 13 13 14 15 16 17 19 8 11 5 2 4 8 10 11 11 10 6 9 9 3 9 3 1 5 4 8 7 25 21 16 10 12 12 13 16 17 13
11 13 14 13 13 13 12 13 13 13 14 14 15 13 9 6 1 2 6 10 9 10 8 7 8 11 3 8 4 4 27 22 8 4 12 23 22 13 12 15 17 18 16 12 13
10 13 13 12 11 11 11 12 12 12 14 13 13 7 5 1 2 5 8 9 8 8 7 8 9 11 13 3 10 7 11 12 10 7 34 27 18 9 13 17 17 15 12 13 11
11 12 10 10 10 9 10 11 12 13 13 11 6 6 2 3 6 7 11 12 10 9 9 11 10 16 10 5 14 23 2 20 11 14 12 20 15 12 11 14 15 12 13 12 10
12 11 8 8 8 8 9 10 12 12 7 6 10 7 7 6 6 7 10 4 9 8 8 10 10 11 14 11 11 16 13 3 13 10 12 14 14 10 12 17 13 13 12 13 12
13 11 8 7 6 6 7 7 6 6 10 7 12 7 6 1 5 11 11 10 9 11 16 15 6 13 12 12 11 5 4 8 6 3 7 11 11 11 9 13 15 15 15 14 14
13 11 7 6 5 5 6 7 6 6 7 11 8 6 4 4 10 12 13 11 11 17 11 8 6 7 7 5 4 4 23 20 5 5 6 11 11 11 12 13 15 14 13 11 11
13 8 5 5 4 6 9 6 4 6 7 8 5 8 10 9 12 14 14 15 16 16 15 3 3 4 5 8 18 20 11 4 2 6 7 21 9 6 15 15 14 14 11 11 11
13 7 3 3 3 3 7 3 7 5 5 11 10 9 8 10 6 14 12 9 10 13 5 3 9 4 11 1 12 9 9 6 4 11 6 15 4 6 3 14 11 11 11 12 11
11 5 4 7 7 7 3 5 5 3 6 15 12 9 13 15 14 10 5 9 13 5 8 6 10 12 6 9 10 9 10 8 5 14 11 14 2 3 11 16 11 11 10 11 12
10 3 4 4 7 7 5 7 2 7 3 9 10 11 14 18 10 16 10 12 7 2 16 6 7 9 11 3 4 7 5 4 19 9 6 21 14 8 7 7 10 11 9 8 9
9 2 9 5 2 2 5 6 7 8 5 10 15 15 17 15 14 10 13 13 10 10 8 9 10 6 4 6 13 13 9 2 5 4 4 7 3 10 8 8 11 10 8 7 5
9 2 5 10 5 4 8 7 8 3 9 3 12 12 14 15 12 14 14 13 17 17 11 11 9 6 2 7 12 15 8 8 14 11 9 16 5 7 12 12 10 9 7 6 9
7 3 7 6 9 5 7 9 4 6 5 7 9 13 10 11 11 14 13 13 12 11 9 6 11 7 6 4 6 10 6 11 9 17 10 4 11 12 9 10 10 8 6 6 6
6 6 6 5 7 8 8 11 4 3 3 7 12 14 12 14 11 16 15 8 6 7 5 4 3 5 8 9 4 4 6 8 6 7 12 6 14 7 10 10 8 6 5 6 3
5 5 6 7 9 6 9 7 3 7 2 6 12 12 8 14 15 16 14 9 4 8 7 4 4 7 5 5 10 4 2 3 4 5 7 8 7 6 8 11 8 5 5 5 1
7 5 7 12 8 10 12 3 4 1 5 6 7 10 8 7 13 14 10 9 7 8 11 3 3 3 4 5 1 3 6 4 7 7 3 7 4 5 7 12 8 6 4 7 5
5 2 8 9 7 11 16 3 5 4 4 10 8 8 5 7 5 5 4 6 4 10 2 6 5 8 3 2 3 4 5 1 1 9 6 10 3 4 9 10 8 6 8 5 3
5 5 5 7 12 11 15 11 11 8 5 5 8 5 10 10 6 7 7 4 5 1 5 3 1 7 7 10 6 3 4 1 2 8 9 7 7 8 8 8 6 7 4 2 4
5 3 3 9 12 10 9 10 11 7 6 6 9 14 14 10 13 8 11 9 8 5 5 3 7 5 4 4 6 4 5 4 7 7 6 11 8 7 10 8 8 6 3 2 4
5 4 5 7 13 11 6 10 11 7 4 9 7 16 16 10 10 9 7 10 8 10 9 4 3 5 6 4 7 7 2 6 2 4 5 6 13 7 6 8 9 7 3 2 6
7 6 5 7 8 10 11 12 9 1 3 1 8 9 11 4 2 5 7 5 5 11 9 8 4 5 9 1 6 10 7 2 2 3 5 9 9 4 3 7 7 6 2 5 4
Wind_Direction
306 305 307 308 309 311 313 317 322 322 322 324 328 329 328 329 322 278 241 70 213 205 187 215 225 245 252 259 267 276 290 89 92 115 290 109 117 92 164 116 87 85 91 115 135
306 306 308 305 306 307 308 312 317 317 320 322 326 329 327 331 312 252 78 263 207 178 212 211 221 228 250 256 251 279 94 65 27 24 75 57 122 128 123 90 263 78 107 122 137
306 307 307 304 306 304 305 308 312 313 317 321 324 329 327 328 271 93 88 187 186 191 259 238 280 244 262 240 109 350 29 40 76 22 351 122 77 82 81 245 58 166 121 129 142
303 304 303 303 303 300 301 304 308 309 314 320 324 329 327 295 335 83 360 199 207 206 258 227 239 238 255 230 100 274 70 2 68 112 231 81 100 49 32 27 31 82 118 132 145
304 306 305 303 300 297 298 299 303 306 310 318 324 331 335 234 55 48 93 192 194 212 238 228 243 253 273 94 178 252 101 154 165 187 345 274 55 87 47 36 72 87 116 125 91
311 310 307 303 298 295 293 295 299 302 307 316 322 327 275 261 53 78 155 173 188 209 228 247 323 350 302 297 279 95 50 112 180 124 67 81 25 21 62 74 91 91 80 71 81
314 313 308 302 298 293 293 292 295 299 301 312 318 325 270 312 26 110 163 184 193 218 216 245 304 283 328 195 217 176 40 339 98 95 120 62 12 41 65 77 84 88 87 81 88
320 315 307 301 297 293 293 291 293 294 294 306 310 298 282 153 249 210 185 184 193 216 275 290 281 274 272 341 214 66 155 204 78 347 93 92 252 92 106 105 102 106 109 98 84
329 320 311 301 300 300 295 289 287 287 293 294 289 243 167 188 204 166 177 173 181 219 245 271 263 253 197 115 1 313 124 96 352 54 109 126 115 109 93 89 96 115 96 102 123
337 333 320 308 306 301 294 292 280 284 291 246 264 257 237 173 127 156 180 190 191 202 226 241 227 232 279 72 206 258 99 17 49 44 105 90 102 107 95 90 91 101 102 87 70
338 333 325 313 306 296 305 284 219 198 224 294 151 301 113 217 199 201 175 193 231 212 217 207 226 270 26 15 0 13 19 88 91 11 89 94 106 96 85 100 96 98 82 85 71
333 329 315 301 295 290 289 264 10 336 262 220 258 252 235 234 189 176 176 199 199 215 231 222 221 58 43 340 286 332 55 332 122 171 139 124 106 109 102 83 86 87 90 96 108
331 322 297 289 298 274 243 291 311 316 251 159 215 200 176 201 191 169 195 216 209 231 212 211 64 91 236 234 78 308 9 44 119 177 197 85 3 257 112 103 101 103 104 92 65
333 322 273 263 256 249 238 235 295 282 249 155 189 200 182 222 214 160 212 265 229 213 208 294 105 228 241 146 341 126 339 296 225 225 212 180 164 63 70 113 107 93 75 79 79
337 318 243 219 319 238 43 306 310 230 220 145 163 128 184 210 152 180 203 261 240 158 268 127 195 219 151 30 348 15 309 295 208 242 126 333 283 285 283 129 109 91 84 84 84
341 307 209 239 246 264 285 304 227 235 153 152 148 184 192 215 192 156 200 239 334 224 220 128 35 5 59 77 354 298 282 345 12 315 154 226 240 152 166 166 119 101 83 74 79
347 273 202 261 14 235 305 236 214 252 131 156 174 184 187 194 193 174 195 200 200 220 166 175 154 114 314 290 351 271 313 221 239 248 270 175 284 88 136 90 92 96 96 80 69
346 271 265 229 271 271 262 224 253 219 171 141 188 182 189 186 195 202 196 199 223 235 175 196 144 160 127 343 337 308 328 321 339 335 345 52 7 157 120 113 106 96 86 81 47
345 283 239 234 224 249 255 223 210 158 63 199 200 187 195 183 200 203 205 202 204 234 261 156 143 119 68 349 311 353 327 5 303 266 273 188 112 93 130 134 134 107 98 81 56
303 248 186 180 195 228 243 261 108 63 265 257 199 198 174 188 212 195 194 205 167 301 339 138 178 163 115 257 165 314 349 304 242 317 323 190 83 157 187 151 126 129 121 96 21
264 232 111 169 176 226 230 211 151 123 217 219 210 208 222 181 213 197 187 150 228 189 256 115 281 123 210 322 358 295 198 346 282 310 322 312 98 28 139 146 151 118 97 112 265
281 232 139 162 208 220 229 230 21 280 151 236 284 207 232 176 220 200 186 180 173 199 207 122 247 280 83 92 62 3 358 331 328 353 6 275 97 50 108 119 133 120 132 77 20
258 157 161 206 219 205 229 182 219 251 180 187 207 252 234 188 234 188 142 87 168 215 221 158 198 244 312 164 190 270 83 315 243 270 29 295 62 143 118 124 137 141 103 159 318
271 196 150 215 270 289 208 212 215 195 247 222 207 186 214 214 212 208 130 131 151 142 334 300 259 286 355 24 352 175 226 308 314 283 344 25 115 132 142 155 149 131 167 91 59
237 256 162 194 223 233 208 210 206 197 212 233 197 203 208 207 204 208 161 144 168 159 177 227 224 267 27 342 286 335 291 326 313 331 298 8 325 73 150 159 151 147 181 111 52
306 304 175 280 222 212 191 216 223 171 213 189 255 201 212 216 208 218 180 191 173 186 183 207 222 271 255 230 288 271 183 277 249 312 262 283 48 17 64 121 133 184 184 96 60
349 271 277 197 211 223 192 224 217 163 143 230 298 200 195 161 63 342 188 177 155 181 181 189 161 237 280 142 303 255 239 96 333 260 352 327 41 44 101 128 172 173 164 62 63